Location: Unspecified
(48.7670°N, 0.0000°E)
Time: 11:37:08
(UTC+00:00)

Courier 1B - Pass Details

Date: 20 June 2019
Orbit: 963 x 1209 km, 28.3° (Epoch: 22 July)

Event Time Altitude Azimuth Distance (km) Brightness Sun altitude
Rises 22:07:59 0° 241° (WSW) 4,020 10.7 -13.5°
Reaches altitude 10° 22:12:27 10° 217° (SW) 3,098 9.9 -13.8°
Maximum altitude 22:16:00 14° 190° (S) 2,836 9.4 -14.0°
Enters shadow 22:16:39 14° 184° (S) 2,849 9.4 -14.1°
Drops below altitude 10° 22:19:36 10° 162° (SSE) 3,134 - -14.3°
Sets 22:24:11 0° 138° (SE) 4,103 - -14.6°
